SCP
0 0 0 0 0 0 0 0 0 0 0 0 0 0 0 0 0 0 0 0 0 0 0 0 0 0 0 0 1 1 1 1 1 1 2 2 2 2 2 2 1 1 0 0
0 0 0 0 0 0 0 0 0 0 0 0 0 0 0 0 0 0 0 0 0 0 0 0 0 0 0 0 0 1 1 1 1 1 2 2 2 2 2 2 1 1 1 0
0 0 0 0 0 0 0 0 0 0 0 0 0 0 0 0 0 0 0 0 0 0 0 0 0 0 0 0 0 1 1 1 1 1 2 2 2 2 2 1 1 1 1 1
0 0 0 0 0 0 0 0 0 0 0 0 0 0 0 0 0 0 0 0 0 0 0 0 0 0 0 0 0 1 1 1 1 1 2 2 2 2 2 1 1 0 1 1
0 0 0 0 0 0 0 0 0 0 0 0 0 0 0 0 0 0 0 0 0 0 0 0 0 0 0 1 1 1 1 1 1 1 1 2 2 2 1 1 0 0 0 0
0 0 0 0 0 0 0 0 0 0 0 0 0 0 0 0 0 0 0 0 0 0 0 0 0 0 0 1 1 1 1 1 1 1 1 1 1 1 0 0 0 0 0 0
0 0 0 0 0 0 0 0 0 0 0 0 0 0 0 0 0 0 0 0 0 0 0 0 0 0 0 1 1 1 0 0 1 1 1 1 1 1 0 0 0 0 0 0
0 0 0 0 0 0 0 0 0 0 0 0 0 0 0 0 0 0 0 0 0 0 0 0 0 0 0 1 1 1 0 0 1 1 1 1 1 1 1 0 0 0 0 0
0 0 0 0 0 0 0 0 0 0 0 0 0 0 0 0 0 0 0 0 0 0 0 0 0 0 0 0 1 1 0 0 1 1 2 2 1 1 1 1 1 0 0 0
0 0 0 0 0 0 0 0 0 0 0 0 0 0 0 0 0 0 0 0 0 0 0 0 0 0 0 0 0 0 0 0 0 1 2 2 2 1 1 1 1 1 1 1
0 0 0 0 0 0 0 0 0 0 0 0 0 0 0 0 0 0 0 0 0 0 0 0 0 0 0 0 0 0 0 0 0 1 1 2 1 1 1 1 1 1 1 1
0 0 0 0 0 0 0 0 0 0 0 0 0 0 0 0 0 0 0 0 0 0 0 0 0 0 0 0 0 0 0 0 0 0 0 1 1 0 0 0 0 0 0 0
0 0 0 0 0 0 0 0 0 0 0 0 0 0 0 0 0 0 0 0 0 0 0 0 0 0 0 0 0 0 0 0 0 0 0 0 0 0 0 0 0 0 0 0
0 0 0 0 0 0 0 0 0 0 0 0 0 0 0 0 0 0 0 0 0 0 0 0 0 0 0 0 0 0 0 0 0 0 0 0 0 0 0 0 0 0 0 0
0 0 0 0 0 0 0 0 0 0 0 0 0 0 0 0 0 0 0 0 0 0 0 0 0 0 0 0 0 0 0 0 0 0 0 0 0 0 0 0 0 0 0 0
0 0 0 0 0 0 0 0 0 0 0 0 0 0 0 0 0 0 0 0 0 0 0 0 0 0 0 0 0 0 0 0 0 0 0 0 0 0 0 0 0 0 0 0
0 0 0 0 0 0 0 0 0 0 0 0 0 0 0 0 0 0 0 0 0 0 0 0 0 0 0 0 0 0 0 0 0 0 0 0 0 0 0 0 0 0 0 0
0 0 0 0 0 0 0 0 0 0 0 0 0 0 0 0 0 0 0 0 0 0 0 0 0 0 0 0 0 0 0 0 0 0 0 0 0 0 0 0 0 0 0 0
0 0 0 0 0 0 0 0 0 0 0 0 0 0 0 0 0 0 0 0 0 0 0 0 0 0 0 0 0 0 0 0 0 0 0 0 0 0 0 0 0 0 0 0
0 0 0 0 0 0 0 0 0 0 0 0 0 0 0 0 0 0 0 0 0 0 0 0 0 0 0 0 0 0 0 0 0 0 0 0 0 0 0 0 0 0 0 0
0 0 0 0 0 0 0 0 0 0 0 0 0 0 0 0 0 0 0 0 0 0 0 0 0 0 0 0 0 0 0 0 0 0 0 0 0 0 0 0 0 0 0 0
0 0 0 0 0 0 0 0 0 0 0 0 0 0 0 0 0 0 0 0 0 0 0 0 0 0 0 0 0 0 0 0 0 0 0 0 0 0 0 0 0 0 0 0
0 0 0 0 0 0 0 0 0 0 0 0 0 0 0 0 0 0 0 0 0 0 0 0 0 0 0 0 0 0 0 0 0 0 0 0 0 0 0 0 0 0 0 0
0 0 0 0 0 0 0 0 0 0 0 0 0 0 0 0 0 0 0 0 0 0 0 0 0 0 0 0 0 0 0 0 0 0 0 0 0 0 0 0 0 0 0 0
0 0 0 0 0 0 0 0 0 0 0 0 0 0 0 0 0 0 0 0 0 0 0 0 0 0 0 0 0 0 0 0 0 0 0 0 0 0 0 0 0 0 0 0
0 0 0 0 0 0 0 0 0 0 0 0 0 0 0 0 0 0 0 0 0 0 0 0 0 0 0 0 0 0 0 0 0 0 0 0 0 0 0 0 0 0 0 0
Wind_Speed
4 5 2 1 1 2 3 4 2 1 0 2 1 1 3 4 4 4 3 3 4 4 4 5 5 5 6 6 6 5 5 4 3 2 1 1 1 2 2 2 3 2 2 2
5 3 3 1 2 3 3 3 2 1 1 1 1 2 2 2 1 1 2 3 3 4 6 7 7 6 6 6 5 5 5 4 3 2 1 1 1 1 2 3 3 4 3 3
3 2 2 2 2 2 1 3 2 1 1 1 1 3 2 2 1 2 2 2 3 3 4 5 6 6 6 6 5 4 5 5 4 3 2 2 2 1 2 4 3 5 4 4
2 3 2 2 1 1 1 2 2 2 2 1 1 2 3 2 2 2 2 3 3 4 4 5 6 6 6 5 4 4 4 4 4 3 4 4 2 2 2 2 3 4 5 5
2 2 3 2 2 1 1 1 1 1 2 1 1 1 5 2 2 3 1 2 3 3 3 5 5 5 5 5 5 4 4 5 5 4 3 3 2 2 2 2 3 4 4 5
1 1 1 1 2 1 1 2 3 3 2 1 2 3 5 3 4 2 1 1 2 3 4 4 4 5 5 6 5 5 5 6 5 5 4 3 3 3 4 4 4 4 4 4
4 3 3 2 2 3 2 3 3 3 1 4 2 3 6 4 3 3 2 1 1 2 3 4 5 5 6 6 6 6 6 6 5 5 5 4 3 3 3 3 4 4 4 4
3 4 4 3 1 0 0 2 4 3 3 3 1 5 5 3 1 1 1 1 1 2 3 3 4 4 4 5 5 5 5 5 5 5 4 4 4 2 2 3 3 3 3 4
1 2 3 2 2 1 1 1 1 3 1 1 4 5 6 1 0 0 0 1 1 1 2 3 3 3 4 4 4 4 4 4 4 4 4 4 4 3 3 4 3 3 3 4
0 2 3 3 2 3 2 2 3 3 2 2 4 4 4 4 4 2 2 1 1 1 2 3 3 3 3 3 4 4 4 4 4 4 4 4 4 4 3 3 4 4 4 4
1 1 4 2 1 1 2 2 2 2 2 3 3 6 4 5 5 4 4 2 1 1 2 2 2 2 3 3 3 4 5 4 4 4 4 4 4 4 4 3 4 4 4 5
1 2 1 3 2 1 1 2 2 2 2 2 2 7 2 3 3 3 3 2 1 1 1 2 2 2 3 4 4 4 4 4 4 4 4 4 4 4 4 4 5 4 5 5
1 3 3 5 4 2 1 0 1 2 2 2 3 8 2 1 1 2 2 2 2 2 2 1 2 2 3 3 4 4 4 4 4 4 4 4 5 5 5 5 5 5 5 5
3 2 3 5 4 2 3 2 2 3 3 4 7 9 7 5 4 4 3 3 3 2 2 1 1 2 3 3 3 3 4 4 4 4 4 4 5 4 4 5 5 5 5 5
3 1 2 4 4 3 5 7 5 6 7 7 7 8 10 8 6 5 4 4 3 3 3 2 2 2 2 3 3 3 3 3 4 4 4 4 4 4 4 4 4 5 5 5
2 1 1 3 3 4 6 9 8 8 7 9 9 12 9 6 4 4 5 5 5 5 5 4 3 2 2 2 3 3 3 3 3 3 4 4 4 4 4 4 4 4 5 5
1 2 1 4 5 4 8 9 9 7 7 7 10 10 3 3 6 7 7 6 7 6 5 5 4 3 3 2 2 2 3 3 3 3 3 4 4 5 5 5 5 5 5 5
3 3 2 2 4 5 8 1 5 6 8 9 9 7 5 7 6 5 5 6 7 6 6 5 4 3 2 1 1 2 2 2 3 3 3 4 4 5 5 5 5 5 5 5
3 5 3 1 2 11 10 4 5 5 8 9 11 10 7 3 3 5 5 6 8 7 5 5 4 3 2 2 1 1 2 2 3 3 4 4 4 5 5 5 5 5 5 5
2 3 4 3 2 8 7 1 3 2 8 6 8 9 6 3 3 6 3 4 5 4 3 3 2 2 2 2 1 1 2 2 3 4 4 4 4 5 5 5 6 5 5 5
2 2 4 5 6 13 9 2 4 3 8 3 6 7 6 8 8 4 2 3 4 4 3 3 3 3 3 2 1 2 3 3 3 3 4 4 4 5 5 5 5 5 5 5
8 7 7 6 6 14 6 7 9 10 4 3 4 5 7 7 5 3 3 4 4 3 3 3 3 3 2 2 2 3 4 3 2 3 4 4 5 4 4 5 5 5 5 5
10 11 8 13 13 6 7 10 7 3 4 4 4 5 5 6 6 5 5 5 5 5 4 3 4 3 2 2 2 4 4 2 2 3 4 4 5 5 4 4 5 5 4 4
7 5 5 8 14 11 10 10 9 8 8 7 5 5 5 7 7 6 6 5 5 5 4 3 3 4 4 3 3 3 2 2 2 3 4 4 4 4 4 4 4 4 4 4
9 7 6 10 12 9 10 12 14 12 9 8 8 7 8 8 8 7 7 6 6 5 4 3 4 5 5 3 3 2 2 2 2 4 4 4 4 4 4 4 4 5 5 6
10 12 12 14 12 9 10 7 7 9 10 10 9 8 7 8 9 8 7 6 5 5 4 4 5 5 5 4 4 3 2 2 3 3 3 3 3 3 4 4 5 8 8 11
Wind_Direction
22 55 43 294 167 131 124 125 134 188 241 86 122 295 323 348 15 18 21 16 13 360 357 12 17 22 24 26 28 24 24 16 31 27 11 23 14 8 16 12 358 353 353 346
45 23 322 332 102 102 116 118 110 50 26 98 89 307 308 351 1 13 19 6 0 357 7 14 15 22 26 24 19 20 19 21 27 20 353 28 50 47 37 22 11 6 1 348
84 318 320 59 76 96 106 168 179 199 355 38 47 322 313 327 13 34 35 16 13 10 357 4 9 13 20 19 12 10 14 20 21 24 33 36 50 42 31 11 5 4 4 4
44 331 10 49 23 148 239 212 181 168 128 304 92 274 287 284 313 340 357 8 3 0 4 10 11 10 11 4 4 13 15 23 22 36 44 43 36 19 3 5 359 1 8 8
9 360 21 23 313 206 227 204 145 150 141 84 54 213 278 297 279 281 297 340 350 359 8 15 12 5 7 4 6 12 19 26 23 32 49 53 28 4 11 21 11 360 358 5
340 339 14 288 304 213 215 66 70 53 80 236 216 200 266 243 235 253 270 359 11 9 11 14 15 16 17 12 11 15 24 23 18 24 30 39 26 14 17 10 4 358 353 355
359 2 359 359 13 23 50 86 50 7 343 251 217 214 249 255 238 215 215 278 1 11 13 15 13 13 14 14 11 12 22 18 12 20 23 21 15 15 15 0 355 353 350 348
37 339 347 7 34 339 326 130 148 189 224 277 289 239 257 269 260 161 172 174 29 24 17 16 7 7 11 12 10 10 17 16 9 16 15 15 16 13 6 358 352 351 345 340
68 293 326 333 321 112 110 138 129 123 83 300 268 282 293 250 336 41 109 55 7 0 360 0 2 7 8 9 10 6 7 12 10 11 12 13 12 13 8 1 357 353 353 348
190 288 313 321 14 30 87 128 102 111 132 271 286 263 248 241 238 235 232 240 274 330 350 350 354 0 1 2 4 6 9 11 10 13 12 9 5 3 4 10 8 359 356 354
46 110 324 10 44 317 63 73 90 109 146 168 264 270 229 219 216 216 229 236 241 269 320 334 342 350 353 0 13 16 13 14 15 15 14 14 6 5 10 12 3 356 352 352
6 98 308 284 274 270 162 161 145 152 232 214 241 272 297 220 210 198 216 230 247 258 300 316 336 359 4 1 3 8 10 12 9 7 11 12 9 8 10 6 1 358 356 355
76 88 28 350 345 0 4 238 168 136 133 182 213 268 325 346 222 218 214 222 237 260 292 325 345 348 349 350 354 2 4 3 2 5 9 9 9 9 5 358 356 356 355 352
102 109 171 207 237 267 273 258 194 159 188 226 233 262 288 281 270 265 249 236 234 241 249 269 296 312 326 338 348 353 354 356 356 0 4 5 0 358 356 351 351 352 349 349
85 149 245 262 278 272 257 253 225 209 212 220 248 254 265 257 252 251 246 242 240 241 247 250 264 288 306 322 334 345 346 349 352 356 356 355 351 351 352 352 351 351 350 346
56 122 330 299 314 295 270 253 237 233 230 239 259 268 261 261 251 247 235 226 232 236 240 242 249 260 277 300 319 330 331 334 345 348 344 342 346 349 348 346 345 347 345 341
80 101 52 291 321 349 277 239 210 213 215 204 229 248 264 258 240 232 226 222 231 238 239 235 234 237 251 269 290 306 312 323 335 340 339 341 343 341 338 337 341 340 336 335
139 114 111 320 12 259 248 224 195 216 239 224 238 254 247 246 255 244 227 223 234 236 235 233 230 235 247 255 280 302 316 320 324 331 333 335 336 331 331 333 332 330 327 324
163 139 122 112 285 282 290 249 188 202 266 229 231 249 253 266 305 278 238 221 227 228 223 223 221 219 226 241 257 284 306 313 317 319 320 324 323 321 322 322 321 318 317 314
104 122 128 142 211 251 257 207 173 116 282 246 214 232 228 169 265 267 236 216 223 221 214 212 205 197 222 247 240 265 289 298 300 306 312 316 316 312 311 311 312 312 310 308
150 158 179 191 233 262 253 195 134 175 252 250 204 215 200 205 227 253 224 211 212 213 212 194 193 212 227 228 213 260 279 282 297 312 314 315 315 312 306 305 307 309 309 311
182 178 192 170 210 254 207 155 193 222 255 243 225 215 213 229 250 253 234 223 216 216 213 196 205 230 232 206 208 253 269 288 309 311 309 309 311 309 309 307 307 309 309 307
208 198 190 196 218 243 188 207 228 237 249 250 241 235 220 233 246 247 239 232 231 225 221 208 209 233 244 227 218 246 271 291 299 302 298 301 307 309 310 307 306 310 308 301
238 203 210 249 258 254 246 249 256 245 242 251 247 243 225 235 245 245 242 241 240 234 224 211 204 230 252 248 245 248 269 281 279 282 289 294 300 305 309 304 298 294 294 294
219 181 213 251 267 282 261 238 243 247 246 250 250 239 231 233 244 239 242 242 237 231 221 205 212 230 244 244 248 251 250 245 262 273 280 287 289 292 297 295 288 288 278 276
201 192 201 235 232 225 253 247 227 231 240 239 240 247 238 224 237 239 241 239 229 224 218 217 224 233 241 235 244 249 235 224 240 266 274 280 285 287 289 295 301 294 291 296